This demonstration page uses our WeatherBlox Daily Observations layout. Learn more.

Left ArrowRight Arrow

Hourly Observations for April 18, 2017

Temp ( °F °C ) Dew Point ( °F °C ) Humidity (%) Winds ( mph kmh ) Pressure ( in mb ) Visibility ( mi km ) Precip ( " mm )
12:37 am 00:37 Mostly Cloudy 56 13.3 50 10 81 81 S 17 28 29.97 1015 10 16 0.00 0.00
12:53 am 00:53 Cloudy 56 13.3 50 10 81 81 S 13 20 29.97 1015 10 16 0.00 0.00
1:53 am 01:53 Cloudy 56 13.3 49 9.4 77 77 SSW 9 15 29.98 1015 10 16 0.00 0.00
2:53 am 02:53 Cloudy 55 12.8 49 9.4 80 80 SW 9 15 29.98 1015 10 16 0.00 0.00
3:53 am 03:53 Cloudy 55 12.8 50 10 83 83 S 10 17 29.99 1016 10 16 0.00 0.00
4:43 am 04:43 Cloudy 53 11.7 50 10 89 89 S 7 11 30.00 1016 10 16 0.00 0.00
4:53 am 04:53 Mostly Cloudy 53 11.7 50 10 89 89 SSW 7 11 30.00 1016 10 16 0.00 0.00
5:53 am 05:53 Cloudy 54 12.2 50 10 87 87 W 3 6 30.00 1016 10 16 0.00 0.00
6:53 am 06:53 Cloudy 54 12.2 51 10.6 90 90 SSW 3 6 30.03 1017 10 16 0.00 0.00
7:36 am 07:36 Mostly Cloudy 54 12.2 51 10.6 90 90 WSW 3 6 30.06 1018 10 16 0.00 0.00
7:53 am 07:53 Cloudy 54 12.2 51 10.6 90 90 WSW 5 7 30.05 1018 10 16 0.00 0.00
8:53 am 08:53 Cloudy 55 12.8 51 10.6 87 87 WSW 3 6 30.06 1018 10 16 0.00 0.00
9:21 am 09:21 Cloudy 56 13.3 51 10.6 84 84 SSW 5 7 30.06 1018 10 16 0.00 0.00
9:53 am 09:53 Mostly Cloudy 58 14.4 52 11.1 81 81 S 7 11 30.05 1018 10 16 0.00 0.00
10:53 am 10:53 Mostly Cloudy 60 15.6 51 10.6 72 72 VRB 3 6 30.05 1018 10 16 0.00 0.00
11:07 am 11:07 Mostly Sunny 61 16.1 51 10.6 70 70 Calm 30.03 1017 10 16 0.00 0.00
11:53 am 11:53 Sunny 64 17.8 51 10.6 63 63 E 6 9 30.05 1018 10 16 0.00 0.00
12:53 pm 12:53 Mostly Cloudy 66 18.9 50 10 56 56 S 9 15 30.04 1017 10 16 0.00 0.00
1:53 pm 13:53 Mostly Sunny 67 19.4 48 8.9 51 51 S 7 11 30.04 1017 10 16 0.00 0.00
2:53 pm 14:53 Sunny 67 19.4 46 7.8 47 47 S 5 7 30.03 1017 10 16 0.00 0.00
3:53 pm 15:53 Sunny 68 20 46 7.8 45 45 S 10 17 30.02 1017 10 16 0.00 0.00
4:53 pm 16:53 Mostly Cloudy 68 20 46 7.8 45 45 S 14 22 30.01 1016 10 16 0.00 0.00
5:53 pm 17:53 Mostly Sunny 66 18.9 46 7.8 49 49 SSW 13 20 30.03 1017 10 16 0.00 0.00
6:53 pm 18:53 Sunny 65 18.3 46 7.8 51 51 SSW 6 9 30.04 1017 10 16 0.00 0.00
7:53 pm 19:53 Partly Cloudy 62 16.7 48 8.9 60 60 SSW 6 9 30.04 1017 10 16 0.00 0.00
8:53 pm 20:53 Cloudy 61 16.1 49 9.4 65 65 S 5 7 30.05 1018 10 16 0.00 0.00
9:44 pm 21:44 Clear with Nearby Thunderstorms 59 15 48 9 68 68 SSW 5 7 30.03 1017 10 16 0.00 0.00
9:53 pm 21:53 Partly Cloudy 58 14.4 48 8.9 70 70 Calm 30.07 1018 10 16 0.00 0.00
10:53 pm 22:53 Mostly Cloudy 58 14.4 50 10 75 75 NNE 7 11 30.10 1019 10 16 0.00 0.00
11:53 pm 23:53 Cloudy 57 13.9 49 9.4 74 74 N 7 11 30.10 1019 10 16 0.00 0.00

Powered by AerisWeather